[[{"header":{"parameterUnit":"m.s-1","parameterCategory":1,"la1":30.2991,"la2":30.254,"lo1":-89.0895,"lo2":-89.0444,"dy":0.0017,"dx":0.0017,"nx":28,"ny":28,"refTime":"2024-06-12T09:00:00:Z","depth":0,"parameterNumber":2,"parameterNumberName":"U-component_of_WINDS"},"data":[0,0,0,0,0,0,0,0,0,0,0,0,0,0,0,0,0,0,0,0,0,0,0,0,0,0,0,0,0,0,0,0,0,0,0,0,0,0,0,0,0,0,0,0,0,0,0,0,0,0,0,0,0,0,0,0,0,0,1.2097,1.2097,0,1.2062,1.2062,1.2061,1.1982,1.1981,1.1979,1.1978,1.1944,1.1945,1.1945,0,0,0,0,0,0,0,0,0,0,0,0,0,1.2097,1.2097,1.2097,1.2096,1.2096,1.2062,1.2062,1.2061,1.1983,1.1981,1.1979,1.1977,1.1944,1.1945,1.1945,0,0,0,0,0,0,0,0,0,0,0,0,0,1.2083,1.2097,1.2097,1.2053,1.2048,1.2062,1.2062,1.2061,1.1983,1.1981,1.1978,1.1976,1.1944,1.1944,1.1945,1.2,0,0,1.1948,1.1949,0,0,0,0,0,0,0,0,1.2084,1.2083,1.206,1.2056,1.2051,1.2024,1.2049,1.2041,1.1984,1.2008,1.1977,1.1975,1.1973,1.1971,1.197,1.1999,1.1997,1.1948,1.1949,1.1949,1.195,0,0,0,0,0,0,0,1.2085,1.2084,1.2083,1.2059,1.2054,1.2035,1.203,1.2047,1.2005,1.2006,1.2,1.1997,1.197,1.1969,1.1969,1.1997,1.1948,1.1949,1.195,1.195,1.2071,1.2074,0,0,0,0,0,0,1.2092,1.2086,1.2084,1.2082,1.2062,1.2037,1.2032,1.2035,1.2004,1.1997,1.1999,1.1993,1.1969,1.1968,1.1967,1.2032,1.1949,1.195,1.1951,1.2069,1.2072,1.2075,0,0,0,0,0,0,1.2092,1.2093,1.2086,1.2082,1.208,1.204,1.2044,1.2036,1.2035,1.1999,1.1991,1.2006,1.1967,1.1966,1.1993,1.203,1.1951,1.1952,1.2066,1.207,1.2073,1.2161,0,0,0,0,0,0,1.2093,1.2093,1.2113,1.2083,1.208,1.2112,1.2046,1.2037,1.2037,1.2029,1.2004,1.1997,1.1965,1.1992,1.1994,1.2029,1.1952,1.2062,1.2067,1.2072,1.2154,1.2167,1.2178,0,0,0,0,0,1.2093,1.2139,1.2115,1.2115,1.2105,1.2114,1.2113,1.2074,1.204,1.2061,1.2037,1.1998,1.2024,1.1996,1.1997,1.2033,1.206,1.2066,1.2072,1.2149,1.2164,1.2178,0,0,0,0,0,0,1.2175,1.2135,1.2107,1.2145,1.2134,1.2101,1.2125,1.2091,1.209,1.2083,1.2035,1.203,1.2065,1.2051,1.202,1.2086,1.2036,1.2042,1.2094,1.2109,1.212,1.2124,1.1953,0,0,0,0,0,1.2198,1.2208,1.2172,1.2209,1.2205,1.2166,1.2169,1.214,1.2127,1.2122,1.21,1.209,1.2096,1.2101,1.2104,1.2151,1.2146,1.2176,1.2188,1.2198,1.2205,1.2232,1.2246,1.2094,1.2094,1.2094,0,0,1.2245,1.2224,1.2233,1.2225,1.2213,1.2226,1.2163,1.2179,1.2189,1.2124,1.215,1.2133,1.2118,1.2156,1.2172,1.2146,1.2246,1.2206,1.2214,1.2216,1.2239,1.2254,1.2266,1.2098,1.2098,1.2097,0,0,1.2338,1.2321,1.2352,1.2341,1.2323,1.2297,1.2304,1.2277,1.2264,1.2288,1.224,1.2251,1.2262,1.2254,1.2251,1.2341,1.2306,1.2343,1.2406,1.2432,1.2444,1.2454,1.2489,1.2502,1.2349,1.235,1.235,0,1.2399,1.2416,1.2372,1.2391,1.239,1.2331,1.2362,1.2354,1.2339,1.234,1.231,1.2323,1.2309,1.2345,1.2367,1.2366,1.2374,1.2347,1.2445,1.2455,1.2465,1.2498,1.251,1.2354,1.2354,1.2353,1.2353,0,1.2493,1.2506,1.2532,1.2519,1.252,1.2546,1.2506,1.2513,1.2483,1.2461,1.2487,1.2467,1.2467,1.2472,1.2444,1.2505,1.249,1.2454,1.2403,1.2485,1.2515,1.2527,1.2361,1.236,1.2358,1.2357,0,0,1.264,1.2601,1.2612,1.2606,1.2582,1.2591,1.2614,1.2613,1.2621,1.2611,1.2631,1.2641,1.2608,1.2605,1.2575,1.2597,1.2673,1.2558,1.2557,1.2583,1.2743,1.2774,1.2789,1.2648,1.265,1.2652,1.2745,0,1.273,1.2767,1.2727,1.2773,1.2786,1.2729,1.2749,1.2738,1.2717,1.2725,1.2702,1.2711,1.2664,1.2663,1.2682,1.266,1.2705,1.2652,1.2669,1.267,1.2678,1.2804,1.2836,1.2925,1.2757,1.2759,1.276,0,1.284,1.2836,1.2884,1.2858,1.2861,1.288,1.2877,1.2884,1.287,1.2853,1.285,1.2813,1.2835,1.2783,1.2814,1.2779,1.2783,1.2773,1.2775,1.2779,1.2723,1.2814,1.2952,1.2968,1.2778,1.2776,1.2775,0,1.2947,1.2953,1.2982,1.2978,1.2948,1.2963,1.2951,1.2934,1.2936,1.2933,1.2934,1.2933,1.2934,1.2935,1.29,1.2865,1.2936,1.2881,1.2925,1.2927,1.2946,1.2946,1.3091,1.2942,1.2942,1.2942,1.2942,0,1.3053,1.3086,1.303,1.3049,1.3083,1.3037,1.3073,1.3055,1.304,1.3056,1.3005,1.3021,1.2972,1.2982,1.2954,1.2986,1.2985,1.2974,1.2968,1.2981,1.2983,1.2986,1.298,1.2945,1.2945,1.2944,1.2943,0,1.318,1.3144,1.3173,1.3141,1.3134,1.3161,1.3134,1.3151,1.3126,1.3146,1.3148,1.311,1.312,1.3084,1.3087,1.3069,1.3117,1.3097,1.3122,1.3118,1.3166,1.3163,1.3321,1.334,1.3176,1.3177,1.3179,0,1.3253,1.3276,1.3247,1.3253,1.3244,1.3254,1.3256,1.3211,1.3215,1.3201,1.322,1.3225,1.3228,1.3246,1.322,1.3223,1.3206,1.326,1.3206,1.322,1.3211,1.3212,1.3215,1.3273,1.3275,1.3277,1.3278,0,1.3387,1.3367,1.3372,1.3371,1.3374,1.3371,1.3364,1.3372,1.3324,1.3332,1.3341,1.3343,1.3346,1.3354,1.3351,1.3339,1.3303,1.3295,1.3306,1.3323,1.3338,1.3334,1.3157,1.3292,1.3291,1.329,1.3289,1.3289,1.3491,1.351,1.3493,1.35,1.3489,1.3485,1.3499,1.3476,1.3483,1.3482,1.3455,1.347,1.3456,1.3448,1.344,1.3453,1.3427,1.3443,1.3447,1.3453,1.3463,1.3332,1.3451,1.3451,1.345,1.345,1.345,0,1.3626,1.3611,1.3618,1.361,1.3616,1.3578,1.3568,1.3577,1.3591,1.3579,1.3583,1.3594,1.3601,1.3574,1.3578,1.3593,1.3576,1.3595,1.3596,1.3595,1.3483,1.3475,1.3609,1.3609,1.3609,1.3609,1.3609,1.3609,1.3697,1.3728,1.3707,1.3732,1.3717,1.3732,1.373,1.3726,1.3717,1.3732,1.3738,1.3719,1.3703,1.3704,1.3709,1.3701,1.3707,1.3733,1.372,1.3617,1.3602,1.3587,1.358,1.3734,1.3734,1.383,1.3831,1.3832]},{"header":{"parameterUnit":"m.s-1","parameterCategory":1,"la1":30.2991,"la2":30.254,"lo1":-89.0895,"lo2":-89.0444,"dy":0.0017,"dx":0.0017,"nx":28,"ny":28,"refTime":"2024-06-12T09:00:00:Z","depth":0,"parameterNumber":3,"parameterNumberName":"V-component_of_WINDS"},"data":[0,0,0,0,0,0,0,0,0,0,0,0,0,0,0,0,0,0,0,0,0,0,0,0,0,0,0,0,0,0,0,0,0,0,0,0,0,0,0,0,0,0,0,0,0,0,0,0,0,0,0,0,0,0,0,0,0,0,-3.0105,-3.0105,0,-3.0189,-3.019,-3.0191,-3.0179,-3.0178,-3.0176,-3.0175,-3.0259,-3.0262,-3.0266,0,0,0,0,0,0,0,0,0,0,0,0,0,-2.9929,-2.9933,-3.0104,-3.0106,-3.0107,-3.0189,-3.019,-3.0191,-3.0179,-3.0178,-3.0176,-3.0174,-3.0258,-3.0262,-3.0266,0,0,0,0,0,0,0,0,0,0,0,0,0,-3.0009,-2.9934,-3.0104,-3.0111,-3.0112,-3.0189,-3.019,-3.0192,-3.018,-3.0178,-3.0176,-3.0174,-3.0256,-3.0262,-3.0267,-3.0342,0,0,-3.0283,-3.0285,0,0,0,0,0,0,0,0,-3.0004,-3.0015,-3.0109,-3.011,-3.0112,-3.0172,-3.0159,-3.0242,-3.018,-3.0154,-3.0175,-3.0173,-3.0231,-3.0239,-3.0259,-3.0346,-3.0349,-3.0284,-3.0287,-3.0289,-3.0291,0,0,0,0,0,0,0,-2.9999,-3.0011,-3.0138,-3.011,-3.0112,-3.0108,-3.0117,-3.0175,-3.0203,-3.0156,-3.0155,-3.0166,-3.0232,-3.0254,-3.0261,-3.0351,-3.0283,-3.0288,-3.0291,-3.0294,-3.0502,-3.0504,0,0,0,0,0,0,-2.9992,-3.0007,-3.0135,-3.014,-3.0052,-3.0113,-3.0123,-3.0155,-3.0203,-3.0208,-3.0168,-3.0165,-3.0246,-3.0255,-3.0264,-3.0354,-3.0289,-3.0294,-3.0297,-3.05,-3.0503,-3.0505,0,0,0,0,0,0,-2.9988,-3.0004,-3.0132,-3.0074,-3.009,-3.0118,-3.0154,-3.0157,-3.0179,-3.0211,-3.0216,-3.0185,-3.0245,-3.0256,-3.0323,-3.0357,-3.0296,-3.0301,-3.0497,-3.0501,-3.0504,-3.0536,0,0,0,0,0,0,-2.9983,-3.0002,-3.0032,-3.0074,-3.0093,-3.019,-3.0156,-3.0161,-3.0189,-3.0186,-3.0229,-3.0234,-3.0244,-3.0315,-3.0328,-3.0363,-3.0305,-3.0494,-3.0499,-3.0503,-3.0532,-3.0541,-3.0548,0,0,0,0,0,-2.9977,-3.0037,-3.0033,-3.0049,-3.0131,-3.0192,-3.0203,-3.0214,-3.0192,-3.0221,-3.0242,-3.0233,-3.0351,-3.0322,-3.0336,-3.0374,-3.0492,-3.0497,-3.0503,-3.0529,-3.0539,-3.0547,0,0,0,0,0,0,-2.9997,-3.0043,-3.0039,-3.0115,-3.015,-3.019,-3.0228,-3.0224,-3.0265,-3.0261,-3.0271,-3.0281,-3.0348,-3.0368,-3.0334,-3.0449,-3.0419,-3.0427,-3.0433,-3.0443,-3.0451,-3.0444,-3.031,0,0,0,0,0,-3.0011,-3.0058,-3.0095,-3.0158,-3.0176,-3.0199,-3.0226,-3.0231,-3.0268,-3.0282,-3.0307,-3.0342,-3.0387,-3.0416,-3.0459,-3.0535,-3.0544,-3.0568,-3.0576,-3.0582,-3.0589,-3.0629,-3.064,-3.0523,-3.0523,-3.0523,0,0,-3.0038,-3.0069,-3.0098,-3.0163,-3.0191,-3.0238,-3.0211,-3.0263,-3.0298,-3.0289,-3.0354,-3.0373,-3.0413,-3.0484,-3.0516,-3.0502,-3.0623,-3.0589,-3.0593,-3.0597,-3.0636,-3.0647,-3.0657,-3.0526,-3.0526,-3.0525,0,0,-3.0114,-3.0142,-3.0198,-3.0226,-3.0268,-3.0283,-3.0296,-3.0337,-3.035,-3.0415,-3.041,-3.0451,-3.0528,-3.0556,-3.0581,-3.0666,-3.0659,-3.068,-3.0719,-3.0759,-3.0768,-3.0776,-3.0806,-3.0817,-3.0687,-3.0687,-3.0687,0,-3.0143,-3.0215,-3.0226,-3.0279,-3.0307,-3.0302,-3.0358,-3.0384,-3.0438,-3.0458,-3.0441,-3.0538,-3.0564,-3.0641,-3.0662,-3.0682,-3.0697,-3.0675,-3.0766,-3.0774,-3.0782,-3.0811,-3.0822,-3.0689,-3.0689,-3.0688,-3.0688,0,-3.0248,-3.0299,-3.0338,-3.0391,-3.0424,-3.0478,-3.0496,-3.0527,-3.053,-3.0546,-3.0611,-3.0643,-3.0692,-3.071,-3.0713,-3.0788,-3.0778,-3.0764,-3.0733,-3.0795,-3.0822,-3.0833,-3.0692,-3.0691,-3.0691,-3.069,0,0,-3.0339,-3.0397,-3.0411,-3.0435,-3.0481,-3.052,-3.0573,-3.0622,-3.0648,-3.0685,-3.0729,-3.0795,-3.0782,-3.081,-3.0815,-3.085,-3.0914,-3.0831,-3.0832,-3.0845,-3.0998,-3.1008,-3.102,-3.091,-3.0912,-3.0914,-3.0994,0,-3.0418,-3.0512,-3.0524,-3.0608,-3.0654,-3.0649,-3.0695,-3.0728,-3.0745,-3.0785,-3.0803,-3.0849,-3.0829,-3.0845,-3.088,-3.0899,-3.0945,-3.0894,-3.095,-3.0952,-3.094,-3.1034,-3.1045,-3.1119,-3.1005,-3.1007,-3.1008,0,-3.0523,-3.0564,-3.0652,-3.0691,-3.0711,-3.0752,-3.0798,-3.0837,-3.0874,-3.0883,-3.0914,-3.0915,-3.0968,-3.0936,-3.101,-3.0975,-3.0998,-3.1011,-3.1014,-3.102,-3.0983,-3.1041,-3.1143,-3.1154,-3.1025,-3.1023,-3.1022,0,-3.0579,-3.0656,-3.0719,-3.0739,-3.0787,-3.0816,-3.0837,-3.0871,-3.09,-3.0939,-3.0957,-3.1002,-3.1026,-3.106,-3.1073,-3.1049,-3.1145,-3.1115,-3.1154,-3.1153,-3.1174,-3.1172,-3.128,-3.119,-3.119,-3.119,-3.1189,0,-3.0666,-3.072,-3.0744,-3.0783,-3.0843,-3.0855,-3.0914,-3.0934,-3.0964,-3.1006,-3.1005,-3.1044,-3.1058,-3.1099,-3.1109,-3.1168,-3.1179,-3.1187,-3.1189,-3.1187,-3.1186,-3.1202,-3.1197,-3.1193,-3.1192,-3.1191,-3.1191,0,-3.0738,-3.0757,-3.0825,-3.0865,-3.0876,-3.0918,-3.0952,-3.0989,-3.1004,-3.1057,-3.107,-3.1094,-3.1142,-3.1158,-3.1216,-3.1223,-3.1291,-3.1289,-3.1279,-3.1279,-3.1317,-3.1313,-3.1439,-3.1456,-3.1355,-3.1356,-3.1357,0,-3.0792,-3.0834,-3.0878,-3.0906,-3.0928,-3.0974,-3.1003,-3.1016,-3.1046,-3.1091,-3.1122,-3.1169,-3.1208,-3.1285,-3.1307,-3.1351,-3.1349,-3.139,-3.1356,-3.1352,-3.1349,-3.1346,-3.135,-3.1397,-3.1398,-3.1399,-3.1399,0,-3.0886,-3.0893,-3.0936,-3.0981,-3.1016,-3.1052,-3.1088,-3.111,-3.1128,-3.1162,-3.1212,-3.1242,-3.1301,-3.1348,-3.1393,-3.1413,-3.1409,-3.141,-3.1421,-3.1419,-3.1412,-3.1416,-3.1296,-3.1407,-3.1406,-3.1406,-3.1405,-3.1405,-3.0951,-3.0987,-3.1024,-3.1071,-3.1099,-3.1131,-3.1168,-3.1188,-3.123,-3.128,-3.1285,-3.1337,-3.1372,-3.1432,-3.1454,-3.1495,-3.1484,-3.15,-3.1504,-3.1508,-3.151,-3.1406,-3.1503,-3.1503,-3.1503,-3.1503,-3.1503,0,-3.1044,-3.1067,-3.111,-3.1159,-3.1196,-3.119,-3.1228,-3.1259,-3.1306,-3.1339,-3.1377,-3.1434,-3.1479,-3.1505,-3.155,-3.1578,-3.1577,-3.1589,-3.1587,-3.1591,-3.1519,-3.1504,-3.1589,-3.1589,-3.1589,-3.1589,-3.1589,-3.1589,-3.1096,-3.1158,-3.1169,-3.1244,-3.1266,-3.1319,-3.1341,-3.1371,-3.1397,-3.146,-3.1498,-3.1515,-3.1545,-3.1592,-3.1633,-3.1639,-3.1656,-3.1669,-3.1674,-3.1605,-3.1597,-3.1588,-3.1575,-3.1673,-3.1673,-3.1743,-3.1744,-3.1744]}]]